| time (UTC) | temp F | wind direction | speed MPH | gust MPH | rain 1hr in | rain 24hr in | rain mn in | humidity % | barometer mb |
| 20260906003152 | 79 | 283 | 0.0 | 2.0 | 0.00 | 0.02 | 0.02 | 87 | 1010.4 |
| 20260906000127 | 80 | 257 | 0.0 | 0.0 | 0.00 | 0.02 | 0.02 | 87 | 1010.6 |
| 20260905221602 | 80 | 254 | 0.0 | 1.0 | 0.00 | 0.02 | 0.02 | 86 | 1010.3 |
| 20260905213138 | 80 | 243 | 0.0 | 0.0 | 0.01 | 0.02 | 0.02 | 86 | 1010.6 |
| 20260905211516 | 79 | 223 | 0.0 | 1.0 | 0.02 | 0.02 | 0.02 | 86 | 1010.2 |
| 20260905200131 | 93 | 284 | 0.0 | 3.0 | 0.00 | 0.00 | 0.00 | 56 | 1010.8 |
| 20260905194508 | 96 | 130 | 0.0 | 1.0 | 0.00 | 0.00 | 0.00 | 52 | 1010.3 |
| 20260905191558 | 93 | 277 | 0.0 | 2.0 | 0.00 | 0.00 | 0.00 | 54 | 1010.4 |
| 20260905170151 | 94 | 135 | 0.0 | 2.0 | 0.00 | 0.00 | 0.00 | 56 | 1012.5 |
| 20260905164514 | 92 | 225 | 0.0 | 2.0 | 0.00 | 0.00 | 0.00 | 62 | 1012.7 |
| 20260905150139 | 84 | 103 | 0.0 | 3.0 | 0.00 | 0.00 | 0.00 | 77 | 1012.8 |
| 20260905144600 | 83 | 90 | 0.0 | 1.0 | 0.00 | 0.00 | 0.00 | 81 | 1012.8 |
| 20260905143006 | 82 | 107 | 0.0 | 2.0 | 0.00 | 0.00 | 0.00 | 81 | 1012.8 |
| 20260905121635 | 77 | 96 | 0.0 | 0.0 | 0.00 | 0.00 | 0.00 | 87 | 1012.3 |
| 20260905114515 | 77 | 96 | 0.0 | 1.0 | 0.00 | 0.00 | 0.00 | 86 | 1012.0 |
| 20260905111656 | 77 | 96 | 0.0 | 0.0 | 0.00 | 0.00 | 0.00 | 87 | 1011.8 |
| 20260905110150 | 77 | 96 | 0.0 | 1.0 | 0.00 | 0.00 | 0.00 | 87 | 1011.8 |
| 20260905103152 | 77 | 96 | 0.0 | 0.0 | 0.00 | 0.00 | 0.00 | 88 | 1011.8 |
| 20260905100113 | 77 | 96 | 0.0 | 0.0 | 0.00 | 0.00 | 0.00 | 88 | 1011.8 |
| 20260905094644 | 77 | 96 | 0.0 | 0.0 | 0.00 | 0.00 | 0.00 | 89 | 1011.7 |
| 20260905084548 | 78 | 96 | 0.0 | 0.0 | 0.00 | 0.00 | 0.00 | 86 | 1011.3 |
| 20260905081525 | 79 | 96 | 0.0 | 0.0 | 0.00 | 0.00 | 0.00 | 85 | 1011.3 |
| 20260905080111 | 79 | 96 | 0.0 | 0.0 | 0.00 | 0.00 | 0.00 | 84 | 1011.5 |
| 20260905073037 | 79 | 96 | 0.0 | 0.0 | 0.00 | 0.00 | 0.00 | 83 | 1011.6 |
| 20260905071614 | 80 | 96 | 0.0 | 1.0 | 0.00 | 0.00 | 0.00 | 83 | 1011.8 |
| 20260905070051 | 80 | 96 | 0.0 | 1.0 | 0.00 | 0.00 | 0.00 | 82 | 1011.9 |
| 20260905064636 | 80 | 96 | 0.0 | 0.0 | 0.00 | 0.00 | 0.00 | 82 | 1012.0 |
| 20260905063101 | 80 | 96 | 0.0 | 0.0 | 0.00 | 0.00 | 0.00 | 82 | 1011.9 |
| 20260905061549 | 80 | 96 | 0.0 | 0.0 | 0.00 | 0.00 | 0.00 | 81 | 1011.8 |
| 20260905060026 | 81 | 96 | 0.0 | 0.0 | 0.00 | 0.00 | 0.00 | 80 | 1011.8 |
| 20260905054556 | 81 | 96 | 0.0 | 1.0 | 0.00 | 0.00 | 0.00 | 79 | 1011.5 |
| 20260905053101 | 81 | 96 | 0.0 | 0.0 | 0.00 | 0.00 | 0.00 | 78 | 1011.4 |
| 20260905051518 | 82 | 96 | 0.0 | 0.0 | 0.00 | 0.00 | 0.00 | 77 | 1011.4 |
| 20260905043149 | 83 | 88 | 0.0 | 0.0 | 0.00 | 0.00 | 0.00 | 73 | 1011.5 |
| 20260905024517 | 85 | 88 | 0.0 | 0.0 | 0.00 | 0.00 | 0.00 | 67 | 1011.3 |
| 20260905011519 | 89 | 88 | 0.0 | 1.0 | 0.00 | 0.00 | 0.00 | 60 | 1010.4 |